Tracking 20724 objects as of 2-Jun-2020
HD Live streaming from Space Station
objects crossing your sky now

PW-SAT2

Track PW-SAT2 now!
10-day predictions


NORAD ID: 43814
Int'l Code: 2018-099BJ
Perigee: 532.8 km
Apogee: 543.2 km
Inclination: 97.8 °
Period: 95.3 minutes
Semi major axis: 6909 km
RCS: Unknown
Launch date: December 3, 2018
Source: POLAND (POL)
Launch site: AIR FORCE WESTERN TEST RANGE (AFWTR)
aabbcc
Your satellite tracking list
Your tracking list is empty




NASA's NSSDC Master Catalog

Two Line Element Set (TLE):
1 43814U 18099BJ  20154.18405988  .00024122  00000-0  14143-2 0  9998
2 43814  97.7850 234.5945 0007523 181.3568 178.7670 15.11745556 81419
Source of the keplerian elements: AFSPC